Torna al catalogo

THORAD AGENA D DEB

AttivoPO
NORAD 5389·DEBRIS·🇺🇸 United States

Lanciato Apr 8, 1970 da Vandenberg Space Force Base

Loading…

Prossimi Passaggi (prossime 24 ore)

TLE

AggiornatoSource: Space-Track

Epoca: Sep 14, 2026, 12:54 UTC

1  5389U 70025KU  26257.53758214 -.00000036  00000-0  62210-5 0  9992
2  5389  99.7919 285.3633 0203157 101.6411  52.5568 13.11281421699136

Traccia THORAD AGENA D DEB in tempo reale con AllMySat

Download on the App Store